This demonstration page uses our WeatherBlox Daily Observations layout. Learn more.

Left ArrowRight Arrow

39.01783, -85.05884

Hourly Observations for November 15, 2018

Temp ( °F °C ) Dew Point ( °F °C ) Humidity (%) Winds ( mph kmh ) Pressure ( in mb ) Visibility ( mi km ) Precip ( " mm )
12:52 am 00:52 Cloudy with Freezing Rain 31 -0.6 28 -2.2 89 89 ENE 20 31 30.22 1023 4 6 0.11 2.79
1:22 am 01:22 Cloudy with Freezing Rain 31 -0.6 28 -2.2 89 89 ENE 18 30 30.27 1025 3 5 0.07 1.78
1:45 am 01:45 Cloudy with Freezing Rain 31 -0.6 29 -1.7 92 92 NE 14 22 30.27 1025 3 5 0.13 3.30
1:52 am 01:52 Cloudy with Freezing Rain 31 -0.6 29 -1.7 92 92 ENE 13 20 30.22 1024 3 5 0.15 3.81
2:04 am 02:04 Cloudy with Freezing Rain 31 -0.6 29 -1.7 92 92 E 10 17 30.27 1025 3 4 0.03 0.76
2:28 am 02:28 Cloudy with Heavy Freezing Rain 31 -0.6 30 -1.1 96 96 ENE 8 13 30.27 1025 3 4 0.11 2.79
2:48 am 02:48 Cloudy with Freezing Rain 30 -1 28 -2 93 93 ENE 10 17 30.27 1025 3 4 0.18 4.57
2:52 am 02:52 Cloudy with Freezing Rain 32 0 29 -1.7 88 88 ENE 16 26 30.20 1023 3 4 0.19 4.83
3:15 am 03:15 Cloudy with Freezing Rain 32 0 30 -1.1 92 92 ENE 13 20 30.21 1023 3 4 0.06 1.52
3:31 am 03:31 Cloudy with Freezing Rain 32 0 30 -1.1 92 92 ENE 12 19 30.21 1023 3 5 0.09 2.29
3:52 am 03:52 Cloudy with Freezing Rain 32 0 30 -1.1 92 92 ENE 12 19 30.16 1022 3 5 0.12 3.05
4:36 am 04:36 Cloudy with Light Freezing Rain 32 0 31 -0.6 96 96 E 12 19 30.18 1022 4 6 0.07 1.78
4:52 am 04:52 Cloudy with Light Freezing Rain 32 0 31 -0.6 96 96 E 10 17 30.14 1021 5 8 0.08 2.03
5:27 am 05:27 Cloudy with Freezing Rain 32 0 32 0 100 100 E 9 15 30.18 1022 4 6 0.03 0.76
5:38 am 05:38 Cloudy with Light Freezing Rain 33 0.6 31 -0.6 92 92 E 10 17 30.18 1022 4 6 0.04 1.02
5:46 am 05:46 Cloudy with Mist and Fog 34 1 30 -1 87 87 E 8 13 30.18 1022 4 6 0.05 1.27
5:52 am 05:52 Cloudy with Mist and Fog 33 0.6 32 0 96 96 E 12 19 30.13 1020 5 8 0.06 1.52
6:04 am 06:04 Cloudy with Light Rain 33 0.6 32 0 96 96 E 10 17 30.18 1022 4 6 0.01 0.25
6:52 am 06:52 Cloudy with Light Rain 33 0.6 32 0 96 96 E 8 13 30.11 1020 5 8 0.03 0.76
7:52 am 07:52 Cloudy with Light Rain 33 0.6 32 0 96 96 E 10 17 30.08 1019 4 6 0.02 0.51
8:52 am 08:52 Cloudy with Light Rain 33 0.6 32 0 96 96 E 10 17 30.07 1018 4 6 0.05 1.27
9:52 am 09:52 Cloudy with Light Rain 34 1.1 32 0 92 92 SE 9 15 30.07 1018 5 8 0.02 0.51
10:38 am 10:38 Cloudy with Drizzle 33 0.6 32 0 96 96 SSE 6 9 30.12 1020 2 3 0.00 0.03
10:52 am 10:52 Cloudy with Drizzle 33 0.6 32 0 96 96 SW 5 7 30.06 1018 2 3 0.00 0.03
10:54 am 10:54 Cloudy with Drizzle 33 0.6 32 0 96 96 SW 6 9 30.12 1020 1 2 0.00 0.03
11:03 am 11:03 Cloudy with Drizzle 33 0.6 33 0.6 100 100 SW 5 7 30.09 1019 1 1 0.00 0.03
11:52 am 11:52 Cloudy with Mist and Fog 33 0.6 33 0.6 100 100 S 7 11 30.04 1017 1 1 0.00 0.03
12:52 pm 12:52 Cloudy with Mist and Fog 34 1.1 33 0.6 97 97 SW 6 9 30.02 1017 1 1 0.00 0.00
1:52 pm 13:52 Cloudy with Mist and Fog 34 1.1 33 0.6 97 97 SW 8 13 29.98 1015 1 1 0.00 0.00
2:24 pm 14:24 Cloudy with Light Snow 35 1.7 33 0.6 93 93 SW 7 11 30.00 1016 3 5 0.00 0.03
2:28 pm 14:28 Cloudy with Light Snow 35 1.7 33 0.6 93 93 SW 6 9 30.00 1016 2 3 0.00 0.03
2:52 pm 14:52 Cloudy with Light Snow 34 1.1 33 0.6 97 97 W 5 7 29.97 1015 2 3 0.00 0.03
3:01 pm 15:01 Cloudy with Light Snow 34 1.1 33 0.6 97 97 W 7 11 29.97 1015 4 6 0.00 0.03
3:41 pm 15:41 Cloudy with Light Snow 34 1.1 33 0.6 97 97 W 6 9 29.97 1015 2 2 0.00 0.03
3:52 pm 15:52 Cloudy with Light Snow 34 1.1 32 0 92 92 W 9 15 29.96 1015 3 5 0.00 0.03
4:52 pm 16:52 Cloudy 34 1.1 33 0.6 97 97 W 7 11 29.97 1015 7 11 0.00 0.03
5:17 pm 17:17 Cloudy 34 1.1 32 0 92 92 WSW 6 9 30.00 1016 8 13 0.00 0.00
5:52 pm 17:52 Cloudy with Light Snow 34 1.1 32 0 92 92 WSW 9 15 29.97 1015 4 6 0.00 0.03
6:21 pm 18:21 Cloudy with Light Snow 33 0.6 32 0 96 96 W 9 15 30.00 1016 5 8 0.00 0.03
6:52 pm 18:52 Cloudy with Light Snow 33 0.6 33 0.6 100 100 WSW 8 13 29.98 1015 2 3 0.00 0.03
7:04 pm 19:04 Cloudy with Light Snow 33 0.6 33 0.6 100 100 WSW 8 13 30.00 1016 1 2 0.01 0.25
7:52 pm 19:52 Cloudy with Light Snow 32 0 32 0 100 100 WSW 9 15 29.99 1016 3 5 0.02 0.51
8:52 pm 20:52 Cloudy 32 0 30 -1.1 92 92 WSW 9 15 30.00 1016 9 14 0.00 0.03
9:16 pm 21:16 Cloudy 32 0 30 -1.1 92 92 WSW 9 15 30.06 1018 10 16 0.00 0.00
9:52 pm 21:52 Cloudy 32 0 30 -1.1 92 92 SW 9 15 30.01 1016 10 16 0.00 0.00
10:52 pm 22:52 Cloudy 31 -0.6 29 -1.7 92 92 SW 14 22 30.01 1016 10 16 0.00 0.00
11:52 pm 23:52 Cloudy 31 -0.6 29 -1.7 92 92 WSW 12 19 30.01 1016 7 11 0.00 0.00

Powered by AerisWeather